Location: Newark
(54.3386°S, 169.8415°W)
Time: 14:26:50
(UTC+00:00)

deb Explorer IX - Visible Passes

Search period start: 15 October 2019 00:00
Search period end: 25 October 2019 00:00
Orbit: 544 x 1107 km, 38.8° (Epoch: 14 October)

Date Brightness Start Highest point End Pass type
(mag) Time Alt. Az. Time Alt. Az. Time Alt. Az.
17 Oct ? 15:15:58 10° NNW 15:17:39 12° N 15:19:16 10° NNE visible
18 Oct ? 14:53:46 10° NNW 14:55:47 12° N 14:57:43 10° NNE visible
19 Oct ? 14:32:20 11° NNW 14:33:56 13° N 14:36:09 10° NNE visible
20 Oct ? 14:11:24 13° N 14:12:04 14° N 14:14:33 10° NNE visible
21 Oct ? 13:50:27 14° N 13:50:27 14° N 13:52:55 10° NNE visible
22 Oct ? 13:29:33 14° NNE 13:29:33 14° NNE 13:31:17 10° NE visible
22 Oct ? 15:12:22 10° NW 15:13:56 11° NNW 15:15:28 10° N visible
23 Oct ? 13:08:44 13° NNE 13:08:44 13° NNE 13:09:37 10° NE visible
23 Oct ? 14:50:08 10° NW 14:52:04 12° NNW 14:53:53 10° N visible
24 Oct ? 14:29:21 12° NNW 14:30:10 12° NNW 14:32:17 10° N visible
